Terminal Aerodrome Forecast
Issued by NWS Jackson, MS

Home | Current Version | Previous Version | Text Only | Print | Product List | Glossary On
Versions: 1 2 3 4 5 6 7 8 9 10 11 12 13
000
FTUS44 KMEG 241100
TAFTUP
TAF
KTUP 241120Z 2412/2512 02004KT 6SM BR SCT007 SCT250
     FM241400 02008KT P6SM BKN040
     FM250100 02004KT P6SM FEW050
     FM250700 02002KT 5SM BR SKC=

USA.gov is the U.S. government's official web portal to all federal, state and local government web resources and services.